DECAYED

NOAA 17 DEB, 48615 (Decayed)

Orbit data source: Space-Track

NOAA 17 DEB, 48615 was space debris in SSO originally from a launch on Mon, 24 Jun 2002 UTC launched from the Air Force Western Test Range (AFWTR). Debris objects in space refer to the collection of defunct objects orbiting the Earth. Examples of debris include non-operational satellites, rocket bodies, and fragments generated from explosions, collisions, or faulty payload assembly.

Not visible in the next 10 days
Identifier
48615, 2002-032AG
Orbit
Decayed
Country
Flag of USUS
Related business
Manufacturer
Unknown
Mission
Decayed spacecraft
Bus & Motor
Unknown
Mass
Unknown
Launch date (UTC)
2002-06-24 (24 years ago)
Launch vehicle
Unknown
Launch site
Air Force Western Test Range (AFWTR)
Object type
Payload
Rocket body
Debris
Shape & HBR
Unknown shape, 0.1 m
Radar Cross Section
Medium (>0.1 m² and <1 m²)

Expand to show TLE details & history
Last TLE update: 5 months ago

TLE from 5 months ago
0 NOAA 17 DEB
1 48615U 02032AG  26011.20080397  .00605227  00000-0  14997-1 0  9993
2 48615  98.9265 106.4166 0004790 295.8077  64.2669 15.38301577256317
Epoch: 2026-01-11T04:49Z
TLE epoch observation values (Epoch: 2026-01-11T04:49:09.463Z)
Latitude
0.00002°
Longitude
-76.58809°
Altitude
452.779 km
Speed
7.642 km/s
True Right ascension
07h 05m 39s
True Declination
0° 00' 00"
Sunlit
Object was in full shadow at epoch
Visualization orbit readout
Latitude
Unknown
Longitude
Unknown
Altitude
Unknown
Speed
Unknown
Apparent Right ascension
Unknown
Apparent Declination
Unknown
Sunlit
N/A
Visualization observer readout
Local Sidereal Time
21:36:04
Azimuth
Unknown
Elevation
Unknown
Doppler factor
Unknown
Orbital elements
Apogee altitude
451.415 km
Perigee altitude
444.875 km
Semi-major axis
6,826.282 km
Eccentricity
0.00048
Inclination
98.9265°
RAAN
106.4166°
Arg. of periapsis
295.8077°
True anomaly
64.31636°
Mean anomaly
64.2669°
Eccentric anomaly
64.29163°
Mean motion
3.84828 °/min
Orbital period
93.55 mins
BSTAR
0.014997
Loading maneuver chart data...
Computing Atmospheric mass density...

Documentation

Showing up to 5 results
|